Terug naar catalogus

BLACKCAT

ActiefWetenschapSSO
NORAD 67369·PAYLOAD·🇺🇸 United States

Gelanceerd Jan 11, 2026 vanaf Vandenberg Space Force Base

Loading…

Volgende Passages (komende 24 uur)

TLE

VersSource: Space-Track

Epoch: Sep 14, 2026, 11:16 UTC

1 67369U 26004G   26257.46967228  .00000731  00000-0  85863-4 0  9994
2 67369  97.8044 254.4443 0006348 199.4852 160.6122 14.87867263 36560

Volg BLACKCAT in realtime met AllMySat

Download on the App Store